Boothville, LA

10:19 AM CDT on May 27, 2017 (GMT -0500)
Boothville

Weather History for KBVE - June, 2013

Change the Weather History Date:

Wednesday, June 26, 2013

  Actual Average (KAXO) Record (KAXO)
Temperature  
Mean Temperature 82 °F -  
Max Temperature 88 °F 82 °F 93 °F (2016)
Min Temperature 78 °F 79 °F 77 °F (2000)
Cooling Degree Days 18    
Growing Degree Days 32 (Base 50)    
Moisture  
Dew Point 76 °F    
Average Humidity 82    
Maximum Humidity 90    
Minimum Humidity 67    
Precipitation  
Precipitation 0.13 in - - ()
Sea Level Pressure  
Sea Level Pressure 30.03 in    
Wind  
Wind Speed 5 mph (SSE)    
Max Wind Speed 9 mph    
Max Gust Speed -    
Visibility 10 miles    
Events Rain    
Averages and records for this station are not official NWS values.
T = Trace of Precipitation, MM = Missing Value Source: NWS Daily Summary

Daily Weather History Graph

Daily Weather History Graph

Search for Another Location

Airport or City:

Trip Planner

Search our weather history database for the weather conditions in past years. The results will help you decide how hot, cold, wet, or windy it might be!

Date:

Astronomy

Jun. 26, 2013 Rise Set
Actual Time 6:00 AM CDT 8:00 PM CDT
Civil Twilight 5:32 AM CDT 8:28 PM CDT
Nautical Twilight 4:59 AM CDT 9:01 PM CDT
Astronomical Twilight 4:24 AM CDT 9:36 PM CDT
Moon 10:44 PM CDT (6/26) 9:34 AM CDT (6/26)
Length of Visible Light 14h 55m
Length of Day
14h 00m
Waning Gibbous, 85% of the Moon is Illuminated
Jun 26
Waning Gibbous
Jun 29
Last Quarter
Jul 8
New
Jul 15
First Quarter
Jul 22
Full

Hourly Weather History & Observations

Time (CDT) Temp. Heat Index Dew Point Humidity Pressure Visibility Wind Dir Wind Speed Gust Speed Precip Events Conditions
12:51 AM 79.0 °F - 75.0 °F 88% 30.04 in 10.0 mi SE 3.5 mph - N/A   Clear
1:51 AM 79.0 °F - 75.0 °F 88% 30.02 in 10.0 mi ESE 3.5 mph - N/A   Clear
2:51 AM 79.0 °F - 75.9 °F 90% 30.01 in 10.0 mi SE 3.5 mph - N/A   Clear
3:51 AM 80.1 °F 85.4 °F 75.9 °F 87% 30.01 in 10.0 mi Calm Calm - N/A   Clear
4:51 AM 81.0 °F 87.3 °F 75.9 °F 85% 30.01 in 10.0 mi SE 5.8 mph - N/A   Partly Cloudy
5:51 AM 81.0 °F 87.3 °F 75.9 °F 85% 30.03 in 10.0 mi South 6.9 mph - N/A   Clear
6:51 AM 82.0 °F 89.4 °F 75.9 °F 82% 30.04 in 10.0 mi South 6.9 mph - N/A   Clear
7:51 AM 82.9 °F 90.8 °F 75.9 °F 79% 30.05 in 10.0 mi South 4.6 mph - N/A   Clear
8:51 AM 84.0 °F 92.6 °F 75.9 °F 76% 30.07 in 10.0 mi Calm Calm - N/A   Partly Cloudy
9:51 AM 84.9 °F 94.1 °F 75.9 °F 74% 30.06 in 10.0 mi SSE 5.8 mph - N/A   Scattered Clouds
10:51 AM 86.0 °F 96.0 °F 75.9 °F 72% 30.07 in 10.0 mi SSE 3.5 mph - N/A   Scattered Clouds
11:51 AM 87.1 °F 96.3 °F 75.0 °F 67% 30.08 in 10.0 mi SSE 4.6 mph - N/A   Clear
12:51 PM 82.0 °F 88.6 °F 75.0 °F 79% 30.08 in 10.0 mi North 9.2 mph - N/A   Scattered Clouds
1:07 PM 80.6 °F 86.2 °F 75.2 °F 84% 30.08 in 10.0 mi NE 8.1 mph - 0.03 in Rain Rain
1:30 PM 78.8 °F - 75.2 °F 89% 30.07 in 10.0 mi ENE 9.2 mph - 0.11 in Rain Light Rain
1:51 PM 79.0 °F - 75.0 °F 88% 30.07 in 10.0 mi East 6.9 mph - 0.13 in Rain Light Rain
2:51 PM 82.0 °F 89.4 °F 75.9 °F 82% 30.05 in 10.0 mi ESE 6.9 mph - 0.00 in   Clear
3:51 PM 84.0 °F 93.7 °F 77.0 °F 79% 30.04 in 10.0 mi South 6.9 mph - N/A   Clear
4:51 PM 84.9 °F 95.3 °F 77.0 °F 77% 30.02 in 10.0 mi South 8.1 mph - N/A   Clear
5:51 PM 84.0 °F 92.6 °F 75.9 °F 76% 30.00 in 10.0 mi SSE 8.1 mph - N/A   Clear
6:26 PM 84.2 °F 92.3 °F 75.2 °F 74% 30.00 in 10.0 mi South 5.8 mph - N/A   Partly Cloudy
6:51 PM 84.0 °F 92.6 °F 75.9 °F 76% 30.00 in 10.0 mi South 9.2 mph - N/A   Clear
7:39 PM 82.4 °F 90.9 °F 77.0 °F 84% 30.00 in 10.0 mi SSE 8.1 mph - N/A   Scattered Clouds
7:51 PM 82.9 °F 91.8 °F 77.0 °F 82% 30.00 in 10.0 mi SSE 9.2 mph - N/A   Partly Cloudy
8:51 PM 82.0 °F 90.2 °F 77.0 °F 85% 30.00 in 10.0 mi SSE 8.1 mph - N/A   Clear
9:51 PM 82.0 °F 90.2 °F 77.0 °F 85% 30.01 in 10.0 mi South 9.2 mph - N/A   Clear
10:51 PM 82.0 °F 90.2 °F 77.0 °F 85% 30.02 in 10.0 mi South 6.9 mph - N/A   Clear
11:51 PM 82.0 °F 90.2 °F 77.0 °F 85% 30.04 in 10.0 mi South 6.9 mph - N/A   Clear